Tracking 18840 objects as of 17-November-2017
HD Live streaming from Space Station
objects crossing your sky now

FENGYUN 1C DEB

Track FENGYUN 1C DEB now!
10-day predictions


NORAD ID: 37466
Int'l Code: 1999-025EJL
Perigee: 655.6 km
Apogee: 833.0 km
Inclination: 99.1 °
Period: 99.6 minutes
Semi major axis: 7115 km
RCS: 0.0036 m2 (small)
Launch date: May 10, 1999
Source: People's Republic of China (PRC)
Launch site: Taiyaun Space Center, China (TSC)

Note: This is SATELLITE DEBRIS
aabbcc
Your satellite tracking list
Your tracking list is empty




NASA's NSSDC Master Catalog

Two Line Element Set (TLE):
1 37466U 99025EJL 17320.45867150 +.00002366 +00000-0 +61082-3 0  9997
2 37466 099.1206 198.0143 0124704 104.2453 257.2624 14.46481853466882
Source of the keplerian elements: AFSPC